Home   Weather   Fairfield Bridge   Past weeks
Flag for Ireland

Past Weather in Fairfield Bridge, Ireland — Yesterday and Last 2 Weeks

Now
59 °F

Cool.


Feels Like: 59 °F
Forecast: 60 / 50 °F
Wind: 2 mph from West

Location: Valentia Observatory
Current Time: Sep 21, 2020 at 2:49:26 pm
Latest Report: Sep 21, 2020 at 1:00 pm
Visibility: 18 mi
Pressure30.10 "Hg
Humidity: 76%
Dew Point: 52 °F
Location of Fairfield BridgeLocation

Past Weather in Fairfield Bridge — Graph

°F

Fairfield Bridge Temperature Yesterday

Maximum temperature yesterday: 65 °F (at 2:00 pm)
Minimum temperature yesterday: 47 °F (at 6:00 am)
Average temperature yesterday: 56 °F

High & Low Weather Summary for the Past Weeks

 TemperatureHumidityPressure
High73 °F (Sep 17, 2:00 pm)100% (Sep 17, 9:00 am)30.40 "Hg (Sep 17, 9:00 am)
Low47 °F (Sep 20, 6:00 am)53% (Sep 18, 12:00 am)29.90 "Hg (Sep 14, 6:00 pm)
Average60 °F83%30.15 "Hg
* Reported Sep 6 1:00 pm — Sep 21 1:00 pm, Fairfield Bridge. Weather by CustomWeather, © 2020

Note: Actual official high and low records may vary slightly from our data, if they occured in-between our weather recording intervals... More about our weather records

Fairfield Bridge Weather History for the Previous 24 Hours

Scroll right to see more
 ConditionsComfort  
Time TempWeatherWind HumidityBarometerVisibility
1:00 pm
Mon, Sep 21
59 °FCool.2 mph76%30.10 "Hg18 mi
12:00 pm58 °FCool.2 mph81%30.10 "Hg22 mi
11:00 am59 °FCool.2 mph82%30.10 "Hg16 mi
10:00 am56 °FCool.No wind91%30.10 "Hg11 mi
9:00 am54 °FCool.1 mph95%30.11 "Hg10 mi
8:00 am52 °FCool.1 mph96%30.10 "Hg10 mi
7:00 am50 °FCool.2 mph96%30.09 "Hg8 mi
6:00 am48 °FCool.No wind96%30.11 "Hg6 mi
5:00 am50 °FCool.1 mph97%30.09 "Hg6 mi
4:00 am48 °FCool.3 mph96%30.10 "Hg9 mi
1:00 am52 °FCool.2 mph94%30.13 "Hg12 mi
12:00 am51 °FCool.2 mph93%30.14 "Hg12 mi
11:00 pm
Sun, Sep 20
53 °FCool.2 mph91%30.15 "Hg13 mi
10:00 pm53 °FCool.2 mph90%30.15 "Hg12 mi
9:00 pm55 °FCool.1 mph88%30.15 "Hg17 mi
8:00 pm56 °FCool.1 mph83%30.14 "Hg19 mi
7:00 pm60 °FCool.1 mph77%30.14 "Hg22 mi
6:00 pm62 °FCool.1 mph71%30.13 "Hg19 mi
5:00 pm62 °FCool.3 mph71%30.14 "Hg17 mi
4:00 pm63 °FMild.2 mph71%30.14 "Hg19 mi
3:00 pm64 °FMild.5 mph64%30.14 "Hg22 mi
2:00 pm65 °FMild.2 mph64%30.14 "Hg19 mi
Weather by CustomWeather, © 2020

See weather overview